Wind_Speed
7 6 5 5 6 6 5 4 4 3 2 2 1 1 1 1 1 2 2 2 2 3 3 3 3 4 4 4 4 5 5 5 6 6 6 6 7 7 8 8 8 9 10
7 7 7 7 6 5 4 4 3 3 2 1 2 2 1 1 2 3 4 4 4 5 5 5 5 5 5 6 6 6 6 6 7 7 8 8 9 9 9 9 10 11 11
8 8 7 6 5 4 4 4 4 3 2 2 1 1 2 2 2 3 4 4 5 6 6 6 6 7 7 7 7 7 8 8 9 9 9 9 10 11 11 11 12 11 12
8 7 6 5 5 4 4 4 3 2 1 1 0 1 2 3 3 4 5 5 6 7 7 7 7 7 8 8 8 9 10 10 10 10 11 11 11 12 12 12 12 13 13
7 6 5 5 4 4 4 3 2 1 1 0 1 2 3 3 4 5 6 6 7 7 8 8 8 8 9 9 10 10 10 11 11 11 11 12 12 12 13 13 13 14 15
6 6 5 4 4 3 3 2 1 1 1 2 2 3 3 4 5 5 6 7 8 8 9 9 10 11 11 11 11 11 11 11 12 12 12 13 14 14 14 15 15 15 16
5 5 4 4 3 2 2 1 1 1 2 2 3 4 4 5 5 6 7 8 8 9 10 11 11 11 12 12 12 13 12 12 11 12 13 14 15 15 16 16 16 16 17
4 3 3 3 3 3 2 2 2 2 3 4 4 4 5 5 6 6 8 8 8 9 10 11 11 11 11 12 12 13 13 12 13 13 14 15 16 16 16 17 17 17 17
4 3 3 3 3 2 2 3 3 3 3 4 5 5 5 6 6 7 7 8 9 9 9 10 11 11 11 12 13 13 14 14 14 15 16 16 16 16 17 17 18 18 18
4 4 3 3 2 2 3 4 4 4 4 5 5 5 6 6 6 7 8 8 9 9 9 9 10 11 12 12 13 13 14 14 14 15 17 17 18 17 18 18 18 18 19
4 3 3 2 2 3 4 4 5 5 5 5 5 6 6 7 7 7 8 9 9 10 10 11 11 12 12 12 13 13 14 15 15 16 17 18 18 18 18 18 18 18 19
4 3 3 3 3 3 4 5 5 6 6 7 7 7 7 8 8 9 10 10 11 11 11 12 12 12 12 12 13 14 14 16 16 17 17 18 18 19 18 18 18 19 19
3 3 3 3 4 4 5 6 6 7 7 8 8 8 8 9 10 10 11 12 12 12 12 12 13 13 13 13 14 15 16 16 16 17 18 18 19 19 19 19 19 20 20
3 3 4 4 4 5 6 7 8 8 8 9 9 9 10 10 11 12 13 13 13 13 13 13 13 13 13 14 14 15 16 16 16 17 18 18 18 19 19 19 20 21 21
4 4 5 5 6 6 7 7 8 8 8 9 10 10 10 10 11 12 12 12 13 13 13 14 14 14 14 15 15 15 16 16 17 18 19 18 18 18 19 20 20 21 22
5 5 6 7 7 7 8 9 9 8 8 9 10 10 11 11 11 12 12 13 13 14 14 14 14 14 15 15 15 15 16 17 17 18 19 18 18 19 20 20 20 21 22
6 6 6 7 8 8 8 9 9 10 10 10 11 11 11 12 12 12 13 13 14 14 14 14 14 15 15 16 16 16 17 17 18 18 18 19 19 20 21 21 21 22 22
6 7 7 8 9 9 9 10 10 10 11 11 12 12 12 13 13 13 14 14 15 14 14 14 15 16 16 17 17 18 18 19 19 19 19 20 21 21 22 22 22 22 22
7 7 8 9 10 10 11 11 11 11 11 11 12 12 13 13 13 14 15 15 15 15 15 16 16 16 17 18 18 19 19 20 20 20 20 21 21 21 22 22 22 23 23
8 9 9 10 10 11 12 12 12 12 12 13 13 14 14 14 14 15 15 16 16 16 16 17 17 17 18 19 19 19 20 21 21 21 22 22 22 22 22 22 22 23 23
10 10 11 11 12 13 13 13 13 14 14 15 15 15 15 15 16 16 17 17 17 17 18 18 19 19 19 20 20 20 21 21 22 22 23 23 23 23 23 23 23 23 24
12 13 13 14 14 14 15 15 16 15 16 16 16 16 17 18 18 18 19 18 18 19 19 19 20 20 21 21 21 21 22 22 23 23 24 24 24 24 24 25 25 25 26
15 15 16 16 16 16 16 16 17 17 17 17 17 18 19 19 20 20 20 20 20 20 20 21 21 22 22 23 23 23 23 24 24 24 24 25 25 26 26 26 26 27 27
17 17 17 17 17 17 18 18 18 18 18 19 19 19 20 20 20 21 21 21 21 21 22 22 22 23 23 23 24 24 25 26 26 26 26 26 27 28 28 28 28 28 28
19 19 20 20 20 20 20 20 20 20 20 20 21 21 22 22 23 23 23 23 23 23 23 23 23 24 24 25 25 25 26 27 27 27 27 28 28 28 29 29 29 29 29
21 21 21 22 22 22 23 23 22 22 22 23 23 23 24 24 25 25 24 24 24 25 25 25 25 25 26 26 26 26 27 28 28 28 28 29 29 30 30 29 29 29 29
Wind_Direction
122 120 123 130 133 137 140 149 143 137 141 136 163 187 192 220 229 245 249 252 259 269 270 272 281 277 275 279 282 280 280 281 278 276 276 277 281 282 279 279 281 279 276
113 118 117 115 115 122 132 132 141 143 159 174 204 225 221 247 259 268 260 259 264 270 274 276 280 279 274 273 281 282 279 279 284 282 278 279 280 285 285 283 283 282 279
98 101 105 107 108 109 112 122 125 134 145 158 182 234 259 262 272 273 278 273 273 274 273 272 276 278 274 277 280 282 284 281 282 282 282 284 282 284 287 286 284 284 280
98 100 104 104 105 103 98 97 103 104 120 105 284 280 283 277 274 281 284 282 284 282 278 274 276 283 281 277 278 280 280 283 284 281 281 284 286 285 284 285 283 280 279
99 102 97 106 106 99 96 92 82 78 96 355 316 305 299 287 283 290 292 288 284 284 279 277 277 279 280 280 281 281 283 285 287 281 279 282 283 282 284 283 284 280 278
93 95 95 99 101 95 88 85 69 43 351 306 301 305 298 292 290 297 299 293 288 285 283 280 279 279 280 280 281 284 284 286 286 282 280 281 283 283 283 284 283 280 278
87 88 90 84 84 87 70 34 13 357 346 320 307 300 297 297 294 298 300 297 292 285 286 282 282 283 283 283 280 283 282 286 280 282 282 281 282 283 283 284 283 281 279
80 79 80 70 63 67 48 19 352 340 333 322 313 305 300 297 298 298 297 295 292 287 284 283 286 287 284 283 282 279 281 284 285 285 287 285 284 284 283 282 281 282 279
75 69 73 67 61 46 22 2 345 335 330 326 322 315 307 300 302 302 308 310 306 300 294 294 294 291 290 287 284 281 282 284 286 287 289 289 286 286 284 283 281 280 279
67 63 61 54 38 15 359 354 349 336 324 320 319 317 313 309 308 307 312 314 315 313 308 303 302 300 297 295 292 287 286 287 286 287 289 288 288 289 290 287 284 283 281
57 55 48 31 6 351 343 343 339 335 329 322 316 313 310 309 308 307 309 311 311 310 308 304 302 302 302 297 294 294 293 290 289 290 290 290 290 292 293 291 287 284 280
43 40 27 11 354 342 334 328 324 325 324 321 314 311 310 310 309 306 305 306 306 306 306 302 302 302 302 300 300 299 297 296 294 294 295 296 295 294 291 290 289 288 286
29 20 2 350 344 341 335 327 322 321 320 319 317 316 316 315 312 310 309 308 307 306 306 304 301 300 301 301 301 301 300 297 295 295 297 297 296 294 292 289 288 290 290
13 354 345 332 329 330 326 323 322 321 319 319 316 313 312 313 312 309 307 306 307 309 306 304 303 302 300 300 301 302 302 300 297 297 299 299 297 296 295 293 290 288 289
356 350 339 330 327 325 323 320 318 316 314 313 314 313 311 311 313 313 311 311 312 311 307 305 304 303 301 301 301 302 303 302 299 299 299 299 297 297 297 297 292 290 290
354 349 345 336 332 331 327 322 321 319 318 317 317 315 312 310 311 312 312 311 311 311 310 307 305 303 303 303 304 304 302 302 302 301 300 299 299 299 299 298 296 295 294
340 340 340 336 330 326 328 326 321 316 313 313 312 311 310 309 309 311 313 312 311 311 310 308 306 303 303 303 304 304 304 303 303 303 303 301 300 299 298 298 299 300 298
325 329 330 328 324 321 322 322 318 315 311 311 311 311 310 309 311 312 314 313 311 310 309 307 305 303 304 304 304 304 305 304 304 305 304 303 302 302 300 300 300 301 300
320 321 318 319 319 317 316 318 318 315 313 312 312 312 311 310 310 309 309 310 309 309 308 306 305 304 303 303 304 304 307 307 307 306 306 306 305 304 303 302 301 300 299
311 314 312 309 310 311 311 310 310 312 312 311 309 309 309 308 309 309 308 308 307 306 306 305 305 304 303 302 302 303 304 305 305 305 306 306 305 305 304 304 303 302 300
304 306 307 307 307 307 307 305 303 305 308 310 308 308 309 308 308 307 307 306 305 305 306 305 303 303 303 302 302 303 305 306 306 306 306 306 305 306 306 305 304 303 302
296 298 300 300 301 304 305 304 303 303 303 304 305 306 307 308 306 306 304 303 303 304 305 305 304 303 302 302 303 304 305 306 306 306 306 305 305 305 304 304 303 303 302
288 291 293 296 299 302 303 304 304 302 300 301 303 304 306 307 307 305 304 303 303 302 303 303 303 303 303 302 303 303 304 304 305 304 304 304 304 304 304 303 301 301 301
286 290 292 293 294 296 298 298 300 297 298 298 299 299 301 303 303 303 303 303 303 303 303 301 302 302 302 302 302 302 301 302 302 303 302 303 303 303 302 302 302 300 300
288 292 293 294 295 297 299 296 295 295 296 297 297 296 297 300 302 302 302 302 303 303 303 302 301 301 301 301 301 300 300 301 302 302 302 302 302 302 301 301 301 300 300
285 288 290 291 292 294 296 297 298 297 295 295 296 296 296 297 298 301 302 301 302 302 301 301 301 301 301 302 301 300 299 298 299 301 301 302 302 302 300 301 302 301 300
Height
5880 5881 5882 5882 5883 5885 5886 5887 5888 5888 5889 5890 5891 5891 5891 5892 5892 5892 5892 5893 5893 5893 5893 5892 5892 5892 5892 5892 5892 5891 5891 5891 5891 5891 5891 5891 5891 5891 5890 5890 5890 5890 5889
5881 5882 5883 5884 5885 5886 5887 5888 5888 5889 5889 5890 5890 5891 5891 5891 5891 5892 5892 5892 5892 5892 5892 5891 5891 5891 5891 5891 5890 5890 5890 5890 5890 5890 5889 5889 5889 5889 5888 5888 5888 5888 5887
5883 5883 5884 5885 5886 5887 5888 5888 5889 5889 5889 5890 5890 5890 5890 5890 5891 5891 5891 5891 5891 5891 5891 5890 5890 5890 5890 5889 5889 5888 5888 5888 5888 5887 5887 5887 5887 5886 5886 5886 5886 5885 5885
5885 5885 5886 5887 5887 5888 5888 5889 5889 5889 5889 5890 5890 5890 5890 5890 5890 5890 5890 5890 5890 5890 5889 5889 5889 5888 5888 5888 5887 5887 5886 5886 5885 5885 5885 5885 5884 5884 5884 5883 5883 5882 5882
5886 5887 5887 5888 5888 5889 5889 5889 5890 5889 5889 5889 5890 5890 5889 5889 5889 5889 5889 5889 5888 5888 5888 5888 5887 5887 5886 5886 5885 5885 5884 5884 5883 5883 5882 5882 5882 5881 5881 5880 5880 5879 5879
5888 5888 5888 5889 5889 5890 5890 5890 5890 5890 5889 5889 5889 5889 5889 5889 5888 5888 5887 5887 5887 5886 5886 5885 5885 5885 5884 5883 5883 5882 5882 5881 5880 5880 5879 5879 5879 5878 5877 5877 5876 5876 5875
5889 5889 5889 5889 5890 5890 5890 5890 5890 5889 5889 5889 5889 5888 5888 5888 5887 5887 5886 5886 5885 5884 5884 5883 5883 5882 5881 5881 5880 5880 5879 5878 5877 5877 5876 5876 5875 5874 5874 5873 5872 5872 5871
5890 5890 5890 5890 5890 5890 5890 5890 5889 5889 5889 5889 5888 5888 5887 5887 5886 5886 5885 5884 5883 5882 5882 5881 5880 5880 5879 5878 5877 5877 5876 5876 5875 5874 5873 5872 5871 5870 5870 5869 5868 5867 5867
5891 5891 5891 5891 5890 5890 5890 5890 5889 5889 5888 5888 5887 5887 5886 5886 5885 5885 5883 5883 5882 5881 5880 5879 5878 5877 5876 5876 5875 5874 5873 5873 5872 5871 5870 5869 5868 5867 5866 5865 5864 5863 5862
5891 5891 5891 5891 5891 5891 5890 5889 5889 5888 5888 5887 5886 5886 5886 5885 5884 5884 5883 5881 5880 5879 5878 5877 5876 5875 5874 5873 5872 5871 5870 5870 5869 5868 5867 5866 5864 5863 5862 5861 5860 5859 5858
5892 5892 5891 5891 5891 5891 5890 5889 5888 5888 5887 5886 5885 5885 5884 5883 5883 5882 5881 5880 5879 5877 5876 5875 5874 5872 5871 5870 5869 5868 5867 5866 5865 5864 5863 5861 5860 5859 5858 5857 5856 5855 5854
5892 5892 5892 5891 5891 5890 5890 5889 5888 5887 5886 5885 5884 5884 5883 5882 5881 5880 5879 5878 5877 5875 5874 5872 5871 5870 5869 5868 5866 5865 5864 5863 5862 5861 5859 5857 5856 5855 5854 5853 5851 5850 5849
5892 5892 5892 5891 5891 5890 5889 5888 5887 5886 5885 5884 5883 5882 5881 5880 5879 5878 5877 5876 5874 5873 5872 5870 5869 5867 5866 5865 5863 5862 5861 5859 5858 5857 5856 5854 5852 5851 5850 5848 5847 5845 5843
5892 5892 5891 5891 5890 5889 5889 5888 5887 5885 5884 5883 5882 5881 5880 5878 5877 5876 5875 5873 5872 5870 5869 5867 5866 5864 5863 5862 5860 5859 5857 5856 5855 5853 5852 5850 5848 5847 5845 5844 5842 5840 5839
5892 5891 5891 5890 5889 5889 5887 5886 5885 5884 5883 5882 5881 5879 5878 5876 5875 5874 5872 5871 5870 5868 5866 5864 5863 5861 5860 5859 5857 5856 5854 5852 5851 5849 5848 5846 5844 5843 5841 5839 5837 5836 5834
5892 5891 5890 5889 5888 5887 5886 5885 5884 5883 5881 5880 5879 5877 5876 5874 5873 5871 5870 5868 5867 5865 5863 5861 5859 5858 5857 5855 5854 5852 5850 5849 5847 5845 5843 5842 5840 5839 5837 5835 5833 5831 5828
5891 5890 5889 5888 5887 5886 5885 5884 5882 5881 5880 5878 5877 5875 5873 5872 5870 5869 5867 5865 5863 5862 5860 5858 5856 5855 5853 5852 5850 5849 5847 5845 5843 5841 5839 5837 5836 5834 5832 5830 5828 5826 5824
5890 5889 5888 5887 5886 5885 5883 5882 5880 5879 5878 5876 5875 5873 5871 5869 5867 5866 5864 5862 5860 5859 5857 5855 5853 5851 5850 5848 5847 5845 5843 5841 5839 5837 5835 5833 5831 5829 5827 5825 5823 5821 5819
5888 5888 5887 5886 5884 5883 5882 5880 5879 5877 5875 5874 5872 5870 5868 5866 5864 5863 5861 5859 5857 5855 5853 5852 5850 5848 5846 5845 5843 5841 5839 5837 5835 5833 5831 5829 5827 5824 5822 5820 5818 5815 5813
5887 5886 5884 5883 5882 5880 5879 5878 5876 5875 5873 5871 5869 5867 5865 5863 5861 5859 5857 5855 5853 5852 5850 5848 5846 5844 5843 5840 5839 5837 5835 5832 5830 5828 5826 5824 5822 5819 5817 5814 5812 5810 5807
5884 5883 5882 5881 5879 5878 5876 5874 5873 5872 5870 5868 5866 5864 5862 5860 5858 5856 5854 5852 5850 5848 5846 5844 5842 5840 5838 5836 5834 5832 5830 5827 5825 5823 5821 5819 5816 5814 5811 5809 5806 5804 5801
5881 5880 5879 5878 5876 5874 5872 5871 5869 5868 5866 5865 5863 5861 5859 5856 5854 5852 5850 5847 5846 5844 5842 5840 5838 5835 5833 5831 5829 5827 5825 5822 5820 5818 5815 5813 5811 5808 5805 5803 5800 5797 5795
5877 5876 5875 5874 5872 5871 5869 5867 5865 5864 5862 5861 5859 5857 5855 5853 5850 5848 5845 5843 5841 5839 5837 5835 5833 5830 5828 5826 5824 5821 5819 5817 5815 5812 5810 5807 5804 5802 5799 5796 5793 5791 5788
5873 5872 5870 5869 5868 5866 5864 5862 5861 5859 5858 5856 5855 5853 5850 5848 5846 5843 5841 5839 5836 5834 5831 5829 5827 5825 5822 5820 5818 5815 5813 5811 5808 5806 5803 5801 5798 5795 5792 5789 5786 5784 5781
5868 5867 5866 5864 5863 5862 5860 5858 5857 5855 5853 5852 5850 5847 5845 5843 5841 5839 5836 5834 5831 5828 5826 5823 5821 5818 5816 5813 5811 5809 5806 5804 5802 5799 5796 5793 5791 5788 5785 5782 5779 5776 5773
5863 5861 5860 5859 5858 5857 5855 5853 5852 5850 5848 5846 5844 5842 5840 5838 5835 5833 5830 5828 5825 5823 5820 5817 5815 5812 5809 5807 5804 5802 5799 5797 5794 5792 5789 5786 5783 5780 5777 5774 5771 5768 5765